SILO ALERT LOG


Silo ID Alert Type Alert Message Silo Type Points Depth (mm) Strength Temperature (°C) Humidity (%) Height (mm) Volume (㎥) Weight (t) Flag Time
DJSAD18 Humidity 습도센서 측정값이 80% 초과 115 1424 5807 3.6 80.8 6155 612.933 387.496 11 2024-01-11 09:39:31.000
DJHNR04 Temperature 온도센서 측정값이 0도 미만 호퍼 99 3953 4749 -0.6 78.7 11426 450.693 284.928 29 2024-01-11 09:39:31.000
DJDJD01 Humidity 습도센서 측정값이 80% 초과 88 8264 3895 0.3 80.7 -584 -70.761 0 0 2024-01-11 09:39:31.000
DJSAD17 Humidity 습도센서 측정값이 80% 초과 439 3121 4744 2.9 80.6 4458 443.96 280.672 0 2024-01-11 09:39:30.000
DJHNR14 Temperature 온도센서 측정값이 0도 미만 호퍼 29 2995 4283 -1.5 73.7 7384 105.335 66.593 11 2024-01-11 09:39:30.000
DJSSD12 Temperature 온도센서 상태 이상 호퍼 0 11350 0 -999 -999 -120 0 0 31 2024-01-11 09:39:25.000
DJHNR03 Temperature 온도센서 상태 이상 호퍼 0 15500 0 -999 -999 -119 0 0 31 2024-01-11 09:39:24.000
DJHNR12 Temperature 온도센서 측정값이 0도 미만 호퍼 0 10500 0 -2.5 82.8 -120 0 0 31 2024-01-11 09:39:23.000
DJHNR12 Humidity 습도센서 측정값이 80% 초과 호퍼 0 10500 0 -2.5 82.8 -120 0 0 31 2024-01-11 09:39:23.000
DJSAD03 Humidity 습도센서 측정값이 80% 초과 444 1712 6046 1.3 84.5 7067 292.583 184.971 0 2024-01-11 08:39:40.000
DJSAD02 Humidity 습도센서 측정값이 80% 초과 383 1132 4305 1.1 88.4 7647 316.591 200.149 11 2024-01-11 08:39:39.000
DJSAD01 Humidity 습도센서 측정값이 80% 초과 450 1439 6488 0.2 88.9 7340 303.866 192.104 0 2024-01-11 08:39:39.000
DJDJD03 Humidity 습도센서 측정값이 80% 초과 49 6525 5138 1.3 81 1154 139.834 88.403 0 2024-01-11 08:39:39.000
DJSAD08 Humidity 습도센서 측정값이 80% 초과 0 7700 3916 12.6 81.2 -120 -17.075 0 12 2024-01-11 08:39:38.000
DJHNR01 Humidity 습도센서 측정값이 80% 초과 호퍼 471 4304 5047 2.9 99.9 11075 473.059 299.068 13 2024-01-11 08:39:37.000
DJSAD11 Humidity 습도센서 측정값이 80% 초과 332 1638 3272 0.5 80.5 5941 845.378 534.448 11 2024-01-11 08:39:36.000
DJHNR08 Temperature 온도센서 측정값이 0도 미만 362 5433 2134 -0.6 68.4 2246 319.723 202.129 11 2024-01-11 08:39:36.000
DJSAD12 Humidity 습도센서 측정값이 80% 초과 0 7700 0 2.1 86.7 -120 -17.075 0 31 2024-01-11 08:39:33.000
DJSSD04 Temperature 온도센서 상태 이상 0 8200 0 -999 -999 -120 -16.702 0 31 2024-01-11 08:39:33.000
DJSSD05 Temperature 온도센서 측정값이 0도 미만 836 2550 4874 -45.4 43.7 5529 769.646 486.57 0 2024-01-11 08:39:33.000

[첫 페이지] [9999] [10000] [10001] [10002] 10003 [10004] [10005] [10006] [10007] [마지막 페이지]